Location: Beuerbach
(48.1459°N, 10.9174°E)
Time: 05:28:03
(UTC+00:00)

Cosmos 1455 - Pass Details

Date: 17 August 2024
Orbit: 432 x 445 km, 82.5° (Epoch: 09 September)

Event Time Altitude Azimuth Distance (km) Brightness Sun altitude
Exits shadow 02:58:53 20° 234° (SW) 1,107 3.2 -11.8°
Maximum altitude 03:00:40 32° 285° (WNW) 786 2.8 -11.6°
Drops below altitude 10° 03:03:47 10° 351° (N) 1,569 5.0 -11.2°
Sets 03:05:59 0° 2° (N) 2,440 6.2 -10.9°
